Location: San Francisco
(37.7790°N, 122.4199°W)
Time: 08:07:18
(UTC-07:00)

ISS - Visible Passes

Search period start: 19 July 2025 00:00
Search period end: 29 July 2025 00:00
Orbit: 415 x 418 km, 51.6° (Epoch: 19 July)

Date Brightness Start Highest point End Pass type
(mag) Time Alt. Az. Time Alt. Az. Time Alt. Az.
19 Jul -1.0 22:18:27 10° N 22:19:57 12° NNE 22:21:28 10° NE visible
19 Jul -0.9 23:54:00 10° NW 23:54:57 17° NW 23:54:57 17° NW visible
20 Jul -2.0 23:05:49 10° NW 23:08:10 29° N 23:08:10 29° N visible
21 Jul -1.8 22:17:42 10° NNW 22:20:23 22° NNE 22:21:25 19° NE visible
21 Jul -0.6 23:54:04 10° WNW 23:54:18 11° WNW 23:54:18 11° WNW visible
22 Jul -1.3 21:29:41 10° NNW 21:31:49 16° NNE 21:33:57 10° ENE visible
22 Jul -2.1 23:05:36 10° NW 23:07:35 33° NW 23:07:35 33° NW visible
23 Jul -3.4 22:17:17 10° NW 22:20:34 51° NE 22:20:53 48° ENE visible
24 Jul -2.4 21:29:03 10° NNW 21:32:05 31° NNE 21:34:15 16° E visible
24 Jul -1.3 23:05:54 10° WNW 23:07:08 18° W 23:07:08 18° W visible
25 Jul -3.3 22:17:12 10° WNW 22:20:26 49° SW 22:20:32 49° SW visible
26 Jul -3.8 21:28:43 10° NW 21:32:04 86° NE 21:33:59 23° SE visible
27 Jul -1.5 22:17:57 10° W 22:20:04 16° SW 22:20:24 16° SW visible
28 Jul -2.2 21:28:51 10° WNW 21:31:47 28° SW 21:33:58 15° S visible
